Location: Brookview Estates
(36.0476°N, 86.6931°W)
Time: 07:22:09
(UTC+00:00)

Resurs 01 Rocket - Pass Details

Date: 30 March 2020
Orbit: 635 x 644 km, 98.0° (Epoch: 02 June)

Event Time Altitude Azimuth Distance (km) Brightness Sun altitude
Exits shadow 02:23:22 44° 357° (N) 885 2.4 -27.2°
Drops below altitude 10° 02:26:24 10° 350° (N) 2,026 4.6 -27.7°
Sets 02:28:36 0° 350° (N) 2,939 5.6 -28.1°
